Home   Weather   Flagstaff   Past weeks

Flag for USA Past Weather in Flagstaff, Arizona, USA — Yesterday and Last 2 Weeks

Now
42 °F

Sunny.


Feels Like: 36 °F
Forecast: 22 / 41 °F
Wind: 10 mph from Southwest

Location: Flagstaff Pulliam Airport

Current Time: Jan 18, 2017 at 1:41:29 pm

Latest Report: Jan 18, 2017 at 12:57 pm


Visibility: 10 mi

Pressure: 30.06 "Hg (23.23 "Hg at 2103m altitude)

Humidity: 55%

Dew Point: 27 °F

Location of FlagstaffLocation

Past Weather in Flagstaff — Graph

°F

Flagstaff Temperature Yesterday

Maximum temperature yesterday: 37 °F (at 1:28 pm)
Minimum temperature yesterday: 24 °F (at 11:57 pm)
Average temperature yesterday: 30 °F

High & Low Weather Summary for the Past Weeks

 TemperatureHumidityPressure
High51 °F (Jan 8, 1:57 pm)100% (Jan 3, 10:57 pm)30.45 "Hg (Jan 3, 10:57 pm)
Low10 °F (Jan 7, 1:57 am)38% (Jan 7, 12:57 pm)29.69 "Hg (Jan 5, 8:57 pm)
Average33 °F86%30.05 "Hg
* Reported Jan 3 11:23 am — Jan 18 11:57 am, Flagstaff, Weather by CustomWeather, © 2017

Note: Actual official high and low records may vary slightly from our data, if they occured in-between our weather recording intervals... More about our weather records

Advertising

Flagstaff Weather History for the Previous 24 Hours

Scroll right to see more
 ConditionsComfort  
Time TempWeatherWind HumidityBarometerVisibility
11:57 am
Wed, Jan 18
42 °FPassing clouds.10 mph51%30.09 "Hg10 mi
10:57 am40 °FPassing clouds.6 mph58%30.12 "Hg10 mi
9:57 am34 °FSunny.7 mph85%30.16 "Hg10 mi
8:57 am30 °FSunny.No wind92%30.16 "Hg10 mi
7:57 am21 °FSunny.No wind92%30.19 "Hg10 mi
6:57 am20 °FClear.No wind92%30.19 "Hg10 mi
5:57 am20 °FClear.No wind89%30.17 "Hg10 mi
4:57 am20 °FClear.No wind92%30.13 "Hg10 mi
3:57 am20 °FClear.No wind92%30.14 "Hg10 mi
2:57 am22 °FClear.No wind89%30.14 "Hg10 mi
1:57 am22 °FPassing clouds.No wind92%30.16 "Hg10 mi
12:57 am23 °FPassing clouds.No wind96%30.15 "Hg10 mi
11:57 pm
Tue, Jan 17
24 °FPassing clouds.No wind91%30.17 "Hg10 mi
10:57 pm25 °FClear.No wind92%30.18 "Hg10 mi
9:57 pm26 °FClear.No wind88%30.15 "Hg10 mi
8:57 pm27 °FPassing clouds.No wind96%30.16 "Hg10 mi
7:57 pm28 °FClear.No wind96%30.16 "Hg10 mi
6:57 pm30 °FClear.No wind89%30.14 "Hg10 mi
6:36 pm31 °FPassing clouds.5 mph89%30.13 "Hg10 mi
6:21 pm33 °FMostly cloudy.6 mph82%30.13 "Hg10 mi
5:57 pm32 °FMostly cloudy.No wind82%30.11 "Hg10 mi
4:57 pm37 °FOvercast.No wind67%30.09 "Hg10 mi
3:57 pm37 °FOvercast.6 mph70%30.09 "Hg10 mi
2:57 pm37 °FOvercast.8 mph70%30.08 "Hg10 mi
2:17 pm37 °FPartly sunny.No wind70%30.11 "Hg10 mi
1:57 pm36 °FBroken clouds.7 mph70%30.09 "Hg10 mi
1:28 pm37 °FOvercast.8 mph67%30.11 "Hg10 mi
1:05 pm36 °FCloudy.8 mph75%30.12 "Hg10 mi
Weather by CustomWeather, © 2017

See weather overviewHow to use our weather pages